星链-3335 (STARLINK-3335 )

导读 | 星芒AI

STARLINK-3335 是 SpaceX Starlink 项目中的一颗低轨通信卫星,属于该星座的第三批部署卫星之一。该卫星由 SpaceX 研制并发射,旨在为全球用户提供高速、低延迟的互联网服务。它运行在约 550 公里的轨道高度,采用先进的相控阵天线和激光通信技术,以提升网络性能和连接稳定性。STARLINK-3335 的部署进一步增强了 Starlink 网络的覆盖能力,特别是在偏远和网络基础设施薄弱的地区。

基本信息
目录编号:
50806
目录名称:
STARLINK-3335
国际标识:
2022-001D
轨道中心:
EARTH
卫星名称:
星链-3335
卫星全名:
星链-3335 (STARLINK-3335 )
卫星状态:
在轨 (已飞行1444 天)
发射日期:
2022-01-06 UTC
国别 :
美国 (US)
星等 :
--
轨道信息
数据来源 国际轨道数据 AOE轨道数据
星历时间 2025-12-20T12:38:37+0800
7小时前
查看轨道信息
2025-12-20T14:00:00+0800
6小时前
查看轨道信息
半长轴 6917.882km 6917.885km
偏心率 0.0001259 0.0002185
轨道倾角 53.217° 53.220°
近地点辐角 85.088° 89.841°
升交点赤经 155.993° 155.740°
平近点角 275.026° 217.450°
近地点 538.874km 538.236km
远地点 540.616km 541.26km
周期 95.438分钟 95.438分钟
每日圈数 15.088398 15.088386
详细信息
固有亮度:
5
最大亮度:
2.5
卫星平台:
Starlink v1.5
覆盖范围:
全球
运营商:
太空探索技术公司
运营商所在国:
美国
制造商(研发单位):
太空探索技术公司
制造商所在国:
美国
使用方式:
暂无
卫星简介
星链(Starlink)计划是由太空探索技术公司(SpaceX)提出的一个巨型低轨卫星互联网星座项目,计划在2019年至2024年间在太空搭建由约1.2万颗卫星组成的“星链”网络,其中1584颗将部署在地球上空550千米处的近地轨道,并从2020年开始工作。该卫星仍在工作。
2D轨道图
3D轨道图
轨道高度分析图
轨道倾角分析图
轨道综合分析图
查看轨道综合分析图